Simultaneous Nadir Overpasses (SNOs) Predictions

Prediction of SNOs between AQUA and GOES-15 Satellite Orbit:

Table of predicted SNOs for the next 14.0 days since TLE Epoch: 7/19/2013
Index Date Time (AQUA) AQUA Lat,Lon GOES-15 Lat,Lon Distance(km) Time Diff (sec)
1 07/19/2013 10:50:32 0.44,-138.64 -0.24,-135.36 372.12 80
2 07/21/2013 10:38:18 -0.14,-135.67 -0.24,-135.36 35.16 80
3 07/23/2013 10:26:05 -0.80,-132.71 -0.24,-135.36 301.82 80
4 07/23/2013 22:47:29 -0.29,-137.90 0.25,-135.35 290.65 80
5 07/25/2013 22:35:15 0.32,-134.93 0.25,-135.34 46.15 80
6 07/27/2013 22:23:01 0.94,-131.97 0.25,-135.34 382.61 80
7 07/28/2013 10:44:16 0.13,-137.12 -0.26,-135.35 201.98 80
8 07/30/2013 10:32:02 -0.50,-134.16 -0.27,-135.34 133.91 80
9 07/30/2013 22:53:26 -0.58,-139.35 0.28,-135.32 459.02 80
10 08/01/2013 10:19:48 -1.15,-131.20 -0.27,-135.32 469.20 80
11 08/01/2013 22:41:12 0.07,-136.39 0.28,-135.30 123.80 80




NCC Satellite Simultaneous Nadir Overpasses (SNOs) Prediction Service
